GEFSCGP_500_meanwind_000.txt.gz
Wind_Speed
27 27 30 31 31 31 29 29 31 33 37 35 39 42 46 42 43 44 42 42 41 38 36 36 38 39 40 39 39 38 40 44 48 51 51 51 53 50 43 39 42 36 37 34
29 31 31 30 30 30 29 30 31 33 33 34 36 38 40 41 42 42 42 42 42 40 38 39 41 42 42 41 40 40 40 44 49 52 52 54 60 55 48 45 37 36 37 33
32 33 31 30 30 29 30 30 31 32 33 33 34 34 36 37 38 38 38 40 41 40 38 38 40 39 39 39 42 45 46 47 50 53 54 54 54 53 50 41 33 32 37 36
32 33 33 32 31 30 29 31 31 32 32 30 33 32 35 36 36 36 37 38 38 38 39 40 40 40 42 43 46 49 50 50 52 54 55 53 51 52 52 47 42 40 42 46
28 31 33 34 35 33 34 34 32 33 33 33 34 34 32 37 35 36 35 35 35 36 38 39 40 40 41 42 45 49 51 52 53 52 52 51 49 49 50 49 46 43 36 38
25 28 30 33 35 36 37 37 38 38 38 40 36 37 36 37 39 38 36 36 36 36 37 39 41 42 43 43 46 49 51 51 51 51 50 49 47 44 44 43 44 41 37 35
18 20 23 27 31 36 38 40 41 41 40 40 39 43 41 43 45 43 41 42 42 42 43 44 45 46 45 44 44 44 45 45 45 45 43 42 40 37 35 36 37 34 35 33
16 19 22 24 25 27 31 35 39 39 36 34 43 45 45 49 47 47 47 48 50 50 50 49 47 46 45 43 40 38 38 39 39 38 34 33 30 28 26 26 27 28 25 27
21 25 26 27 27 27 27 30 35 38 39 40 43 41 44 48 47 47 49 50 51 50 50 47 44 43 42 40 37 34 33 32 29 27 25 22 19 20 23 24 24 20 20 26
24 29 31 29 29 29 28 28 28 31 33 36 39 37 31 34 40 40 40 43 44 45 44 42 40 38 37 35 33 32 29 26 23 20 17 16 13 11 14 17 21 22 27 29
28 29 30 29 27 27 30 31 32 34 34 33 31 34 40 37 33 34 35 36 39 40 40 40 38 35 34 35 34 33 30 26 22 18 18 14 11 15 14 18 17 20 24 27
26 29 28 28 31 34 37 38 38 37 34 36 36 35 32 33 32 32 33 34 35 34 35 36 36 35 33 32 32 30 28 27 24 22 24 18 14 14 15 17 17 21 20 23
19 23 27 25 30 35 38 41 44 45 42 41 38 36 34 30 32 32 30 29 31 32 32 32 31 31 32 31 31 30 27 26 25 25 26 24 21 19 19 19 19 22 23 26
18 19 24 28 34 40 39 33 29 35 39 36 33 35 37 33 31 32 31 28 29 31 32 30 28 28 29 29 29 29 29 30 31 31 29 28 28 25 23 22 23 24 25 26
24 20 22 24 27 33 34 31 29 27 31 34 33 33 36 32 31 32 32 35 29 27 29 28 26 26 27 27 27 27 29 31 32 34 35 34 34 32 28 27 28 29 29 29
28 23 21 20 22 25 22 21 24 27 28 30 32 34 32 31 31 32 30 30 29 25 25 26 26 26 26 27 29 31 32 32 32 33 34 36 39 40 39 38 37 37 36 36
27 24 22 18 20 20 21 19 17 17 22 25 25 26 26 27 30 31 30 29 29 24 24 26 27 29 31 31 32 33 34 34 35 36 36 37 39 41 43 44 44 44 44 44
28 26 23 21 19 18 15 14 13 9 12 15 12 10 13 17 19 23 24 27 25 22 28 31 30 29 29 29 30 31 32 33 35 36 37 38 40 42 44 45 46 47 48 48
27 27 23 19 16 15 13 10 8 8 7 8 9 9 11 14 13 15 17 22 22 21 28 34 26 25 28 28 28 29 29 29 30 32 34 35 36 38 40 42 43 44 45 46
24 26 24 21 16 13 11 6 4 4 5 5 6 10 10 11 12 13 14 15 16 15 16 18 20 23 26 26 25 26 27 28 29 29 31 32 32 34 36 37 38 40 40 38
20 22 23 22 18 14 11 6 2 2 5 6 7 7 8 11 13 14 15 16 18 20 22 23 23 23 22 21 21 23 25 27 27 27 28 28 28 28 28 28 28 30 31 29
16 18 20 21 19 16 12 7 2 1 3 7 8 7 6 7 10 13 16 18 20 21 22 22 21 21 20 20 21 22 23 23 23 21 21 20 19 17 16 17 18 19 21 23
14 13 14 16 17 18 14 9 5 3 1 3 4 6 7 9 10 12 13 14 15 18 20 20 22 22 21 20 19 16 16 16 16 15 15 15 15 17 18 17 17 17 19 20
15 13 11 11 11 13 15 14 11 7 4 2 2 2 3 6 7 9 10 11 12 14 17 20 22 21 19 17 15 13 12 12 11 11 13 14 15 19 20 19 19 20 21 22
19 15 12 10 9 8 9 10 11 9 7 5 4 4 2 2 3 5 6 8 10 11 13 15 16 16 17 18 19 19 17 17 15 14 13 14 17 21 20 18 22 25 23 24
22 18 15 13 11 9 7 7 6 5 5 6 6 6 5 4 4 4 5 8 9 11 11 11 11 10 12 15 19 20 21 21 21 19 19 18 18 20 18 19 23 26 27 27

GEFSCGP_500_meanwind_006.txt.gz
Wind_Speed
24 23 21 16 16 20 19 22 21 18 18 24 30 33 32 31 36 40 45 46 43 40 40 41 42 43 42 41 40 41 41 41 42 43 44 43 43 44 45 47 47 44 41 39
25 23 22 25 30 30 29 31 29 23 22 30 38 38 34 31 37 41 46 49 48 45 43 43 44 45 45 44 43 44 43 43 44 46 46 46 45 46 48 49 49 46 42 39
27 24 30 34 34 31 29 27 29 30 26 26 36 41 38 35 40 46 48 49 48 46 44 43 45 46 46 47 47 45 45 46 46 46 46 47 48 49 49 49 49 47 45 42
30 31 36 35 31 28 26 23 27 29 31 31 29 31 30 30 36 43 45 46 46 47 47 45 44 46 47 48 48 47 47 47 46 45 46 48 50 51 50 49 48 48 47 45
22 28 33 33 29 30 32 32 34 35 36 38 37 35 32 27 36 41 41 41 43 46 47 45 44 44 46 47 47 47 46 46 45 46 47 48 50 51 50 49 49 48 48 46
12 17 21 23 26 31 35 38 39 40 40 42 39 36 37 31 37 43 43 41 42 41 42 43 42 42 43 44 44 44 44 44 45 46 47 49 51 51 50 49 47 45 44 43
5 7 10 12 15 20 26 31 35 37 39 41 36 36 37 36 44 49 49 46 41 35 34 36 39 40 41 42 43 44 44 45 46 47 49 50 52 53 51 48 46 43 42 42
7 10 13 15 16 18 22 26 31 34 35 33 33 37 41 45 49 52 52 51 53 52 49 46 44 43 43 44 45 46 47 48 49 50 51 51 52 51 48 45 43 42 42 42
17 18 21 22 24 25 28 30 32 37 38 37 36 38 42 43 44 46 48 51 53 53 53 53 52 50 48 48 48 50 51 52 53 51 49 47 46 44 42 41 41 40 39 36
21 22 21 26 26 26 29 29 32 37 40 40 39 34 40 46 44 42 45 52 56 54 53 55 55 55 52 51 50 51 52 52 50 46 44 42 40 37 37 37 37 36 33 30
13 13 13 17 20 23 26 25 28 31 36 37 37 34 37 41 46 46 48 41 39 44 46 45 43 44 45 45 45 45 45 44 42 41 40 38 35 33 34 35 35 34 30 27
9 11 13 14 18 22 25 27 33 37 38 39 40 39 38 38 42 46 49 51 45 38 36 37 37 38 39 40 40 39 38 39 40 39 37 35 34 34 34 35 35 34 31 27
11 13 15 14 18 23 27 32 38 43 44 43 44 43 41 39 37 42 48 51 50 44 39 37 37 37 38 38 38 36 35 36 37 37 36 34 33 34 34 36 36 34 31 28
14 15 18 19 20 23 28 33 39 42 44 43 42 43 41 45 43 38 36 40 42 41 40 38 37 36 36 36 36 35 33 33 33 34 34 34 33 33 34 35 34 33 34 33
16 17 20 23 26 28 30 29 31 35 38 42 44 42 38 38 44 42 33 31 32 33 35 37 36 35 33 33 33 33 31 29 28 30 33 34 34 34 35 36 36 35 36 38
20 20 21 23 27 30 30 28 29 29 31 35 37 37 35 32 35 38 33 29 29 29 30 31 31 31 32 33 32 30 29 28 28 28 29 30 31 31 32 33 34 35 36 38
22 22 23 24 27 30 27 30 28 25 25 27 29 27 24 23 24 23 23 24 26 27 27 27 28 28 30 31 32 31 30 29 29 29 30 31 32 33 34 34 34 35 37 38
21 21 22 23 26 27 29 29 24 20 20 20 20 20 18 17 17 18 20 22 23 24 24 24 25 25 25 26 28 29 30 30 31 33 33 34 35 34 34 34 34 36 37 39
22 21 21 22 23 24 25 26 21 16 16 17 16 15 12 12 13 15 16 17 18 19 19 20 21 22 23 23 25 27 29 30 32 33 33 33 33 33 33 33 34 34 36 37
23 21 21 21 22 22 24 24 20 16 15 15 15 13 12 10 10 11 13 15 16 17 17 18 19 20 21 21 23 24 27 29 30 29 29 28 29 30 30 31 32 33 34 35
27 24 22 21 21 20 22 22 21 18 17 15 13 12 12 11 10 10 11 13 15 16 17 18 19 21 22 23 24 25 27 28 27 26 24 24 25 27 29 30 31 31 32 31
27 25 23 22 21 20 20 20 20 19 17 15 12 10 10 10 10 11 11 13 14 15 15 16 17 19 21 22 23 24 25 25 23 22 22 22 23 25 25 25 25 25 24 24
30 27 25 24 22 22 19 18 17 17 15 14 12 10 9 8 8 8 8 8 8 8 9 9 11 13 15 17 19 21 21 20 20 19 19 18 19 19 19 19 20 20 21 21
29 31 29 25 22 23 21 19 17 15 14 12 10 9 8 7 6 6 6 7 7 7 8 9 10 11 12 12 14 17 18 18 18 17 16 16 16 17 17 18 19 20 22 23
24 29 31 29 24 24 23 21 19 17 15 13 11 9 9 8 7 6 6 7 7 7 8 9 11 12 12 12 11 10 11 14 15 16 17 18 19 20 20 21 22 23 23 23
23 23 27 28 27 26 24 23 21 20 18 17 15 13 12 11 10 9 9 10 9 9 9 9 9 10 11 11 11 10 8 9 13 17 20 21 22 22 22 22 23 24 24 24

GEFSCGP_500_meanwind_012.txt.gz
Wind_Speed
20 20 18 17 19 22 24 25 27 26 22 25 28 31 27 26 33 36 38 40 41 41 40 36 32 29 32 34 35 37 38 37 36 34 34 35 36 37 38 40 40 40 40 41
21 22 22 22 23 25 25 26 27 26 23 24 26 27 27 26 33 38 40 42 43 42 42 41 39 41 40 40 38 37 39 38 37 35 35 37 39 40 41 42 42 42 42 43
24 24 26 27 27 29 29 29 29 29 27 28 29 28 26 27 34 39 42 44 46 47 47 46 43 39 40 39 39 39 42 40 38 37 38 39 41 42 42 42 42 42 43 44
21 24 27 28 30 31 32 32 33 33 30 32 33 34 32 33 37 41 45 48 51 51 51 47 42 39 38 39 41 40 39 39 40 40 40 41 42 42 42 42 41 41 42 43
16 19 22 24 26 30 32 34 36 36 35 34 37 41 40 40 42 45 49 52 53 53 50 46 42 39 39 40 40 40 40 40 41 41 41 43 42 42 41 40 40 40 41 43
11 13 14 16 18 23 27 29 31 33 33 35 35 41 45 44 47 49 52 54 54 54 51 48 45 44 43 42 41 41 39 38 39 39 39 40 40 39 39 39 39 41 42 43
7 8 9 10 11 13 17 19 20 22 25 28 28 35 40 42 46 49 51 53 54 54 53 52 50 47 45 44 42 39 36 36 36 38 39 39 39 39 39 40 41 43 44 45
7 8 10 12 13 15 17 19 21 23 24 23 25 30 32 36 39 42 45 49 52 53 54 56 55 53 50 46 44 41 39 39 40 41 41 41 42 42 43 44 45 46 47 48
10 11 12 14 15 16 17 18 21 24 26 27 26 27 32 35 39 41 43 46 49 51 53 55 57 55 53 49 45 43 42 43 44 44 45 46 47 47 47 47 49 49 49 48
10 8 8 10 11 11 12 12 16 19 25 27 28 28 29 34 38 42 45 47 50 52 53 53 53 51 48 47 46 44 44 44 44 44 45 47 48 48 48 49 49 48 45 42
6 6 6 9 11 12 13 15 18 21 25 31 36 34 34 37 40 44 46 48 47 47 46 47 47 44 40 38 38 35 37 39 39 37 37 37 39 41 42 43 42 41 39 37
9 10 10 13 15 16 17 19 22 26 29 33 39 40 36 37 40 44 47 48 48 47 43 42 39 37 35 32 30 28 27 29 31 32 32 33 34 36 37 37 37 37 37 36
14 15 15 18 19 20 22 24 26 29 32 35 37 36 34 34 36 38 41 43 45 45 41 36 31 29 27 26 26 28 29 29 30 30 31 32 33 34 34 35 35 35 35 35
18 18 19 20 23 24 24 26 28 31 33 36 34 33 30 33 35 35 36 38 38 37 35 33 30 25 23 23 25 27 28 29 30 30 30 30 31 32 33 34 33 33 33 34
23 23 23 24 26 26 25 26 29 30 32 33 31 30 30 31 32 33 31 29 27 26 26 27 26 25 23 23 24 26 28 29 29 29 29 29 30 31 32 32 32 32 32 32
30 29 28 28 29 29 27 27 28 29 30 30 28 27 28 29 29 27 24 19 16 16 16 16 18 19 21 21 22 24 26 27 28 28 29 29 30 30 31 31 30 29 29 29
35 34 33 32 32 32 30 28 27 27 27 27 26 26 26 26 25 24 21 16 12 10 9 11 13 16 19 20 21 22 23 24 25 26 28 28 29 29 29 29 29 28 28 28
36 38 38 37 36 33 30 29 26 25 24 24 25 25 24 23 22 21 18 15 11 9 8 9 11 14 16 18 20 21 22 22 22 24 25 26 28 28 28 28 27 27 27 27
32 36 38 38 37 35 29 29 26 25 22 23 24 23 21 19 19 18 16 13 11 10 10 10 11 12 14 16 18 19 20 21 22 22 23 24 25 26 26 25 25 24 24 24
27 28 31 33 34 35 30 28 25 25 22 22 21 20 18 16 16 16 14 13 12 11 10 10 11 11 13 15 16 18 19 21 22 22 22 23 22 22 21 21 20 20 22 23
24 25 26 28 30 31 30 29 26 26 24 22 20 18 16 15 15 15 14 12 12 11 11 10 11 11 12 13 15 17 18 20 21 21 21 20 19 18 18 18 18 19 20 21
26 26 25 25 28 29 29 31 30 28 26 23 21 18 16 14 14 13 12 11 10 10 10 9 9 10 10 10 12 13 14 15 16 16 16 15 15 14 14 14 14 15 16 18
26 27 28 26 27 28 30 32 32 31 28 25 23 20 17 15 13 12 11 10 9 8 7 7 7 8 8 8 8 8 9 9 10 10 11 11 11 12 12 12 12 13 15 16
23 28 29 29 27 28 29 30 31 31 29 26 24 23 20 18 15 13 12 11 10 9 8 7 7 7 7 7 7 6 6 6 5 6 7 8 10 11 12 13 14 16 16 17
24 26 27 27 27 27 25 26 27 28 28 27 25 25 24 22 19 18 16 15 14 13 12 10 10 9 9 8 8 7 6 6 5 4 5 7 9 11 13 15 16 17 17 17
28 27 26 24 25 27 24 24 24 25 26 27 26 26 27 25 23 22 21 20 19 17 16 15 14 13 12 12 11 10 9 8 8 7 7 8 9 11 12 13 13 13 14 15

GEFSCGP_500_meanwind_018.txt.gz
Wind_Speed
17 19 21 22 24 26 28 31 33 35 38 40 41 42 43 43 43 42 42 41 39 36 34 34 33 32 32 31 32 33 35 36 38 40 43 45 45 47 45 45 43 39 35 32
20 22 22 21 22 23 24 25 26 27 30 33 35 36 37 39 40 39 39 38 36 36 36 36 36 36 36 35 35 36 37 39 41 43 45 47 47 47 48 50 46 41 37 35
22 23 22 23 23 24 25 26 27 27 27 28 29 31 33 35 36 36 36 35 35 36 37 38 38 37 37 37 37 38 39 41 43 45 46 47 48 45 46 46 42 37 34 33
22 24 24 24 25 25 26 27 28 28 28 29 30 33 33 35 36 37 37 36 36 36 38 39 42 41 39 39 40 42 43 43 44 46 47 48 47 46 42 40 36 33 31 30
19 21 22 23 25 26 27 28 29 30 30 30 31 35 36 36 38 39 41 41 41 41 42 43 45 46 46 46 47 47 49 50 50 50 49 47 44 41 39 35 33 31 29 29
15 17 19 20 22 24 25 27 28 29 29 29 29 32 34 34 37 41 45 47 47 49 50 51 51 52 53 54 54 55 55 55 54 53 51 45 40 37 34 31 29 28 29 30
12 14 16 17 19 20 22 24 25 25 25 24 24 26 26 26 29 34 40 45 49 52 55 57 59 59 60 60 60 60 60 58 57 54 50 45 40 37 33 30 28 29 31 33
11 13 14 15 17 18 20 21 23 24 22 19 18 20 20 22 25 28 31 36 40 45 49 53 56 58 59 60 60 60 59 57 55 50 46 43 40 36 34 31 30 32 33 35
13 14 16 16 16 17 18 18 19 20 18 17 15 16 18 22 25 27 29 32 35 39 43 48 52 54 56 57 57 57 56 55 52 48 43 41 40 37 36 34 34 34 35 37
13 13 14 13 13 13 14 14 15 18 20 20 18 17 22 24 26 28 31 33 35 38 42 45 49 52 54 55 56 55 54 52 49 46 42 40 38 38 38 37 36 36 36 37
10 10 10 12 13 14 15 17 18 20 22 25 24 20 25 27 29 31 34 36 38 40 42 44 47 49 50 49 50 50 48 45 41 38 38 37 35 35 36 37 37 37 37 36
10 11 11 13 15 17 18 19 20 22 24 26 29 26 28 30 32 34 36 38 40 42 43 44 45 45 44 42 40 40 40 38 36 34 33 33 32 32 33 34 34 34 34 34
15 16 17 18 19 21 22 23 24 26 27 28 30 29 31 33 34 35 37 38 40 41 42 41 40 37 35 33 31 31 31 30 30 30 29 29 30 29 29 30 30 31 32 32
22 22 23 24 25 26 26 27 28 29 30 31 30 31 30 33 34 35 36 37 39 39 38 36 33 30 27 26 26 26 26 26 26 25 25 25 26 27 28 29 30 31 32 32
24 25 26 26 28 30 30 29 32 33 33 34 32 32 32 32 33 34 34 35 36 36 34 31 29 24 22 20 21 20 21 22 22 22 23 23 24 26 27 29 30 31 31 32
24 25 26 26 27 31 31 30 34 35 35 35 34 32 33 33 32 33 32 31 32 31 29 27 24 20 17 16 16 16 16 17 19 20 21 22 24 26 28 29 30 30 31 31
22 24 26 25 25 29 28 27 32 34 35 34 34 33 33 32 31 31 29 28 28 27 25 23 21 18 16 15 15 16 16 17 18 19 21 22 23 25 27 28 29 30 30 30
22 24 26 26 26 26 25 27 29 31 31 31 32 32 32 32 30 30 27 25 25 23 22 20 18 16 15 14 13 14 15 15 16 18 20 21 22 24 25 26 27 27 28 28
24 25 27 27 28 26 22 26 30 32 29 28 31 30 31 31 29 29 26 24 22 20 19 17 16 15 13 13 12 12 13 14 15 16 18 20 21 22 23 23 24 24 24 22
26 26 27 28 29 27 25 26 27 29 27 26 29 29 30 31 30 28 26 23 19 18 17 16 15 14 13 12 11 11 12 12 13 14 15 17 17 18 18 18 19 18 17 16
26 27 29 30 30 28 28 28 28 28 28 27 27 28 29 30 30 28 25 22 19 16 14 13 12 11 11 10 9 9 10 11 12 13 13 14 14 14 14 15 14 14 13 13
27 29 29 30 29 28 29 29 29 29 28 27 27 27 28 28 28 28 26 23 19 16 14 13 12 11 11 10 9 8 8 9 10 10 11 11 11 11 11 11 12 12 12 12
28 31 33 32 30 30 31 32 32 32 30 29 29 28 28 28 28 28 26 24 21 17 15 14 14 13 12 11 10 9 9 9 9 9 9 9 9 9 9 10 11 11 12 13
29 34 35 33 32 32 33 33 34 34 33 32 31 29 28 27 27 28 28 26 23 21 18 17 16 15 14 13 12 11 10 10 9 9 9 8 8 8 9 10 11 12 13 15
36 39 39 36 33 33 32 34 35 35 35 34 32 30 29 27 26 28 29 29 26 24 23 21 20 18 17 16 15 14 13 11 11 10 10 9 9 9 10 11 12 14 14 15
40 40 41 39 37 37 34 34 36 36 36 35 34 32 30 29 27 27 28 29 28 26 25 24 24 22 21 19 17 16 15 14 13 12 12 12 12 12 12 13 13 14 15 15